TimeEST,TemperatureF,Dew PointF,Humidity,Sea Level PressureIn,VisibilityMPH,Wind Direction,Wind SpeedMPH,Gust SpeedMPH,PrecipitationIn,Events,Conditions,WindDirDegrees,DateUTC
12:00 AM,14.0,6.8,73,29.80,8.0,North,4.6,-,N/A,Snow,Light Snow,10,2013-02-04 05:00:00
1:00 AM,14.0,10.4,86,29.80,2.0,NW,4.6,-,N/A,Snow,Light Snow,320,2013-02-04 06:00:00
1:30 AM,12.2,10.4,92,29.80,4.0,WNW,3.5,-,N/A,Snow,Light Snow,300,2013-02-04 06:30:00
2:00 AM,12.2,8.6,85,29.79,5.0,WNW,2.3,-,N/A,Snow,Light Snow,300,2013-02-04 07:00:00
3:00 AM,12.2,8.6,85,29.79,15.0,West,2.3,-,N/A,Snow,Light Snow,270,2013-02-04 08:00:00
4:00 AM,8.6,6.8,92,29.78,20.0,WSW,4.6,-,N/A,,Partly Cloudy,240,2013-02-04 09:00:00
6:00 AM,6.8,3.2,85,29.79,20.0,WSW,3.5,-,N/A,,Partly Cloudy,240,2013-02-04 11:00:00
6:42 AM,6.8,3.2,85,29.80,10.0,WSW,3.5,-,N/A,Snow,Light Snow,250,2013-02-04 11:42:00
7:00 AM,5.0,1.4,85,29.80,6.0,West,5.8,-,N/A,Snow,Light Snow,260,2013-02-04 12:00:00
8:00 AM,6.8,3.2,85,29.80,4.0,SW,2.3,-,N/A,Snow,Light Snow,230,2013-02-04 13:00:00
9:00 AM,8.6,5.0,85,29.78,4.0,WSW,4.6,-,N/A,Snow,Light Snow,240,2013-02-04 14:00:00
10:00 AM,10.4,6.8,85,29.77,4.0,WSW,9.2,-,N/A,Snow,Light Snow,240,2013-02-04 15:00:00
11:00 AM,12.2,8.6,85,29.76,12.0,WSW,9.2,-,N/A,Snow,Light Snow,240,2013-02-04 16:00:00
12:00 PM,15.8,8.6,73,29.75,4.0,WSW,12.7,24.2,N/A,Snow,Light Snow,240,2013-02-04 17:00:00
1:00 PM,15.8,6.8,68,29.74,5.0,WSW,17.3,27.6,N/A,Snow,Light Snow,240,2013-02-04 18:00:00
2:00 PM,14.0,-0.4,53,29.76,7.0,West,12.7,23.0,N/A,Snow,Light Snow,260,2013-02-04 19:00:00
3:00 PM,14.0,-2.2,49,29.80,25.0,West,13.8,25.3,N/A,Snow,Low Drifting Snow,270,2013-02-04 20:00:00
4:00 PM,12.2,-5.8,45,29.82,40.0,West,12.7,24.2,N/A,Snow,Low Drifting Snow,280,2013-02-04 21:00:00
5:00 PM,10.4,-7.6,44,29.85,25.0,West,10.4,17.3,N/A,Snow,Low Drifting Snow,280,2013-02-04 22:00:00
6:00 PM,6.8,-5.8,56,29.87,25.0,WSW,11.5,18.4,N/A,,Clear,240,2013-02-04 23:00:00
7:00 PM,5.0,-7.6,56,29.90,25.0,West,5.8,-,N/A,,Clear,260,2013-02-05 00:00:00
8:00 PM,3.2,-7.6,61,29.91,25.0,West,4.6,-,N/A,,Clear,270,2013-02-05 01:00:00
9:00 PM,1.4,-9.4,61,29.93,25.0,West,5.8,-,N/A,,Clear,260,2013-02-05 02:00:00
10:00 PM,1.4,-11.2,56,29.94,25.0,West,4.6,-,N/A,,Clear,260,2013-02-05 03:00:00
11:00 PM,-0.4,-13.0,55,29.95,25.0,WNW,3.5,-,N/A,,Clear,300,2013-02-05 04:00:00